BOX108 EDDF-KPBI

Flight info

Callsign BOX108
Flight time N/A
Altitude 30000
Route OBOKA5G/25C OBOKA Z29 TORNU DCT BREDA DCT GALSO Q63 ERING L179 UGBET Q60 OKSAW DCT FELCA DCT FADZU DCT BANBA DCT LIMRI/M084F320 DCT 53N020W 53N030W 53N040W 52N050W DCT TUDEP/N0474F320 DCT PEPRA/M082F340 DCT LOMPI M202 JEBBY DCT 4260N DCT 41N062W 40N064W 39N066W DCT DRYED M201 VIRST DCT OXANA DCT ROBBB DCT 32N076W DCT JAINS/N0482F340 DCT ROWSY Y494 AYCHB DCT BAHAA DCT DULEE DCT HIBAC JESTR1
Aircraft B77L/H-SDE1E2E3FGHIJ2J3J4J5M1RWXY/LB1D1

Departure

Time 2026-05-05 19:21
Airport Frankfurt Main Airport (EDDF)

Arrival

Time N/A
Airport Palm Beach International Airport (KPBI)
Time Latitude Longitude Altitude Speed Heading
2026-05-05 18:44 50.03658 8.52436 346 ft 0 kts 339°
2026-05-05 19:07 50.03649 8.52441 356 ft 4 kts 342°
2026-05-05 19:07 50.03624 8.52451 345 ft 4 kts 355°
2026-05-05 19:07 50.03597 8.52449 356 ft 4 kts 22°
2026-05-05 19:07 50.03581 8.52429 345 ft 1 kts 69°
2026-05-05 19:11 50.03584 8.52443 345 ft 5 kts 71°
2026-05-05 19:11 50.03596 8.52554 347 ft 14 kts 86°
2026-05-05 19:11 50.03621 8.52734 349 ft 19 kts 70°
2026-05-05 19:12 50.03608 8.52875 356 ft 8 kts 146°
2026-05-05 19:12 50.03584 8.52947 350 ft 8 kts 91°
2026-05-05 19:12 50.03603 8.53047 344 ft 14 kts 70°
2026-05-05 19:12 50.03657 8.53279 350 ft 32 kts 70°
2026-05-05 19:13 50.03702 8.53544 353 ft 13 kts 111°
2026-05-05 19:13 50.03656 8.53570 353 ft 8 kts 185°
2026-05-05 19:13 50.03571 8.53521 353 ft 16 kts 202°
2026-05-05 19:13 50.03509 8.53486 349 ft 8 kts 185°
2026-05-05 19:14 50.03482 8.53572 345 ft 16 kts 79°
2026-05-05 19:14 50.03532 8.53792 353 ft 23 kts 70°
2026-05-05 19:14 50.03588 8.54024 351 ft 23 kts 70°
2026-05-05 19:14 50.03650 8.54284 355 ft 32 kts 69°
2026-05-05 19:15 50.03736 8.54642 355 ft 34 kts 70°
2026-05-05 19:15 50.03813 8.54965 359 ft 30 kts 69°
2026-05-05 19:15 50.03886 8.55269 360 ft 30 kts 70°
2026-05-05 19:15 50.03959 8.55573 360 ft 30 kts 69°
2026-05-05 19:16 50.04031 8.55877 355 ft 30 kts 70°
2026-05-05 19:16 50.04103 8.56176 363 ft 30 kts 70°
2026-05-05 19:16 50.04176 8.56485 365 ft 30 kts 70°
2026-05-05 19:16 50.04250 8.56788 369 ft 30 kts 70°
2026-05-05 19:17 50.04322 8.57092 370 ft 30 kts 69°
2026-05-05 19:17 50.04394 8.57397 371 ft 30 kts 70°
2026-05-05 19:17 50.04466 8.57700 368 ft 30 kts 69°
2026-05-05 19:17 50.04539 8.58003 374 ft 30 kts 70°
2026-05-05 19:18 50.04611 8.58301 376 ft 24 kts 70°
2026-05-05 19:18 50.04653 8.58496 373 ft 22 kts 83°
2026-05-05 19:18 50.04563 8.58608 374 ft 17 kts 161°
2026-05-05 19:18 50.04481 8.58562 375 ft 11 kts 243°
2026-05-05 19:19 50.04478 8.58552 375 ft 0 kts 250°
2026-05-05 19:20 50.04418 8.58300 373 ft 64 kts 249°
2026-05-05 19:20 50.04165 8.57243 373 ft 142 kts 250°
2026-05-05 19:21 50.03740 8.55481 520 ft 193 kts 249°
2026-05-05 19:21 50.03273 8.53472 1145 ft 196 kts 250°
2026-05-05 19:21 50.02821 8.51487 1881 ft 198 kts 251°
2026-05-05 19:21 50.02676 8.49274 2155 ft 215 kts 277°
2026-05-05 19:22 50.02893 8.46922 2436 ft 225 kts 276°
2026-05-05 19:22 50.03053 8.44475 2845 ft 229 kts 270°
2026-05-05 19:22 50.02806 8.42028 3265 ft 231 kts 256°
2026-05-05 19:22 50.02459 8.39568 3767 ft 233 kts 259°
2026-05-05 19:23 50.02157 8.37093 4322 ft 233 kts 259°
2026-05-05 19:23 50.01860 8.34625 4862 ft 230 kts 259°
2026-05-05 19:23 50.01563 8.32154 5028 ft 237 kts 259°
2026-05-05 19:23 50.01264 8.29606 5002 ft 243 kts 263°
2026-05-05 19:24 50.01461 8.26989 5028 ft 250 kts 292°
2026-05-05 19:24 50.02227 8.24528 5038 ft 255 kts 294°
2026-05-05 19:24 50.02968 8.22025 5034 ft 254 kts 293°
2026-05-05 19:24 50.03697 8.19512 4981 ft 257 kts 293°
2026-05-05 19:25 50.04434 8.16972 5028 ft 264 kts 293°
2026-05-05 19:25 50.05197 8.14339 5021 ft 269 kts 293°
2026-05-05 19:25 50.06012 8.11682 5193 ft 268 kts 301°
2026-05-05 19:25 50.07085 8.09335 5875 ft 270 kts 305°
2026-05-05 19:26 50.08260 8.07059 6600 ft 270 kts 306°
2026-05-05 19:26 50.09472 8.04750 7094 ft 274 kts 305°
2026-05-05 19:26 50.10683 8.02442 7498 ft 278 kts 305°
2026-05-05 19:26 50.11895 8.00132 7951 ft 282 kts 305°
2026-05-05 19:27 50.13141 7.97754 8508 ft 284 kts 305°
2026-05-05 19:27 50.14393 7.95354 9050 ft 286 kts 304°
2026-05-05 19:27 50.15645 7.92933 9473 ft 288 kts 304°
2026-05-05 19:27 50.16909 7.90480 9874 ft 293 kts 304°
2026-05-05 19:28 50.18208 7.87961 10184 ft 307 kts 304°
2026-05-05 19:28 50.19587 7.85284 10345 ft 326 kts 305°
2026-05-05 19:28 50.21055 7.82435 10505 ft 345 kts 305°
2026-05-05 19:28 50.22596 7.79426 10765 ft 363 kts 305°
2026-05-05 19:29 50.24183 7.76306 11231 ft 371 kts 306°
2026-05-05 19:29 50.25992 7.73426 11547 ft 378 kts 323°
2026-05-05 19:29 50.27559 7.72163 11856 ft 384 kts 336°
2026-05-05 19:29 50.30908 7.70150 12701 ft 388 kts 333°
2026-05-05 19:30 50.32549 7.69017 13085 ft 391 kts 333°
2026-05-05 19:30 50.35043 7.67260 13705 ft 395 kts 333°
2026-05-05 19:30 50.37566 7.65496 14324 ft 399 kts 333°
2026-05-05 19:30 50.40113 7.63726 14915 ft 403 kts 333°
2026-05-05 19:31 50.42692 7.61945 15491 ft 407 kts 334°
2026-05-05 19:31 50.45285 7.60167 16052 ft 411 kts 334°
2026-05-05 19:31 50.47926 7.58357 16590 ft 415 kts 334°
2026-05-05 19:31 50.50583 7.56534 17127 ft 419 kts 334°
2026-05-05 19:32 50.53260 7.54688 17659 ft 422 kts 334°
2026-05-05 19:32 50.55959 7.52804 18180 ft 426 kts 332°
2026-05-05 19:32 50.58552 7.50558 18685 ft 427 kts 325°
2026-05-05 19:32 50.61031 7.47936 19140 ft 431 kts 323°
2026-05-05 19:33 50.63499 7.45215 19597 ft 435 kts 323°
2026-05-05 19:33 50.66008 7.42513 20084 ft 438 kts 324°
2026-05-05 19:33 50.68559 7.39857 20571 ft 441 kts 324°
2026-05-05 19:33 50.71149 7.37194 20982 ft 445 kts 325°
2026-05-05 19:34 50.73671 7.34448 21426 ft 447 kts 317°
2026-05-05 19:34 50.75682 7.30761 21843 ft 445 kts 296°
2026-05-05 19:34 50.77004 7.26379 22041 ft 443 kts 292°
2026-05-05 19:35 50.79747 7.17471 22717 ft 454 kts 294°
2026-05-05 19:35 50.81188 7.13026 23203 ft 455 kts 295°
2026-05-05 19:35 50.82645 7.08571 23627 ft 457 kts 295°
2026-05-05 19:35 50.84106 7.04084 23991 ft 461 kts 294°
2026-05-05 19:36 50.85570 6.99549 24353 ft 465 kts 294°
2026-05-05 19:36 50.87039 6.94972 24728 ft 467 kts 294°
2026-05-05 19:36 50.88509 6.90373 25104 ft 470 kts 294°
2026-05-05 19:36 50.89989 6.85742 25453 ft 473 kts 294°
2026-05-05 19:37 50.91482 6.81079 25802 ft 476 kts 294°
2026-05-05 19:37 50.92985 6.76383 26155 ft 478 kts 294°
2026-05-05 19:37 50.94496 6.71661 26507 ft 481 kts 294°
2026-05-05 19:37 50.96017 6.66907 26840 ft 484 kts 294°
2026-05-05 19:38 50.97546 6.62121 27162 ft 486 kts 294°
2026-05-05 19:38 50.99055 6.57385 27483 ft 489 kts 294°
2026-05-05 19:38 51.00614 6.52483 27789 ft 492 kts 294°
2026-05-05 19:38 51.02134 6.47698 28114 ft 493 kts 294°
2026-05-05 19:39 51.03682 6.42817 28404 ft 495 kts 294°
2026-05-05 19:39 51.05232 6.37914 28689 ft 498 kts 294°
2026-05-05 19:39 51.06785 6.33000 28963 ft 499 kts 294°
2026-05-05 19:39 51.08350 6.28048 29227 ft 501 kts 294°
2026-05-05 19:40 51.09917 6.23087 29468 ft 503 kts 293°
2026-05-05 19:40 51.11483 6.18102 29764 ft 503 kts 293°
2026-05-05 19:40 51.13028 6.13077 29810 ft 506 kts 291°
2026-05-05 19:41 51.15300 6.02584 29856 ft 497 kts 279°
2026-05-05 19:41 51.16881 5.91928 29859 ft 495 kts 281°
2026-05-05 19:42 51.19162 5.81607 29867 ft 496 kts 292°
2026-05-05 19:42 51.22561 5.71977 29878 ft 500 kts 299°
2026-05-05 19:43 51.26285 5.62567 29875 ft 502 kts 299°
2026-05-05 19:43 51.29997 5.53113 29879 ft 502 kts 299°
2026-05-05 19:44 51.33681 5.43623 29879 ft 502 kts 298°
2026-05-05 19:44 51.37351 5.34103 29875 ft 502 kts 298°
2026-05-05 19:45 51.40977 5.24662 29886 ft 500 kts 298°
2026-05-05 19:45 51.44618 5.15170 29877 ft 499 kts 298°
2026-05-05 19:46 51.48247 5.05676 29882 ft 498 kts 298°
2026-05-05 19:46 51.51856 4.96206 29887 ft 497 kts 298°
2026-05-05 19:47 51.55112 4.86454 29892 ft 494 kts 288°
2026-05-05 19:47 51.57103 4.75948 29886 ft 488 kts 277°
2026-05-05 19:48 51.58219 4.65199 29887 ft 487 kts 276°
2026-05-05 19:48 51.59315 4.54430 29893 ft 489 kts 276°
2026-05-05 19:49 51.60452 4.43624 29894 ft 490 kts 276°
2026-05-05 19:49 51.61605 4.32809 29890 ft 491 kts 276°
2026-05-05 19:50 51.62741 4.22055 29888 ft 490 kts 276°
2026-05-05 19:50 51.63873 4.11248 29890 ft 489 kts 276°
2026-05-05 19:51 51.64989 4.00466 29894 ft 488 kts 276°
2026-05-05 19:51 51.66092 3.89713 29892 ft 486 kts 276°
2026-05-05 19:52 51.67183 3.78968 29904 ft 485 kts 275°
2026-05-05 19:52 51.68265 3.68234 29910 ft 485 kts 275°
2026-05-05 19:53 51.69338 3.57499 29910 ft 485 kts 275°
2026-05-05 19:53 51.70403 3.46757 29919 ft 486 kts 275°
2026-05-05 19:54 51.71467 3.35982 29917 ft 487 kts 275°
2026-05-05 19:54 51.72518 3.25183 29926 ft 488 kts 275°
2026-05-05 19:55 51.72948 3.14289 29930 ft 485 kts 264°
2026-05-05 19:55 51.72174 3.03623 29929 ft 480 kts 258°
2026-05-05 19:56 51.71178 2.92954 29940 ft 482 kts 258°
2026-05-05 19:56 51.70236 2.82235 29935 ft 484 kts 259°